Simultaneous Nadir Overpasses (SNOs) Predictions

Prediction of SNOs between AQUA and METOP-B Satellite Orbit:

Table of predicted SNOs for the next 14.0 days since TLE Epoch: 12/3/2022
Index Date (AQUA) Time (AQUA) Lat,Lon (AQUA) SZA (AQUA ) Date (METOP-B) Time (METOP-B) Lat,Lon (METOP-B) SZA (METOP-B ) Distance(km) Time Diff (sec)
1 12/04/2022 17:30:10 -73.43, 94.04 84.36 12/04/2022 17:29:05 -73.36, 90.94 84.39 98.83 65
2 12/04/2022 18:19:50 74.13, -99.86 96.36 12/04/2022 18:19:29 74.15, -99.85 96.38 2.50 21
3 12/04/2022 19:09:16 -74.18, 67.66 83.59 12/04/2022 19:10:10 -74.18, 67.56 83.59 3.20 54
4 12/07/2022 13:03:34 -74.15, 159.17 83.29 12/07/2022 13:03:12 -74.17, 159.26 83.27 3.21 22
5 12/07/2022 13:53:02 74.23, -33.38 96.81 12/07/2022 13:53:51 74.21, -33.29 96.78 3.39 49
6 12/10/2022 07:47:19 74.13, 58.29 96.98 12/10/2022 07:46:55 74.14, 58.27 96.99 1.00 24
7 12/10/2022 08:36:46 -74.23,-134.28 82.92 12/10/2022 08:37:35 -74.22,-134.19 82.93 2.89 49
8 12/13/2022 02:31:03 -74.15, -42.67 82.78 12/13/2022 02:30:39 -74.15, -42.64 82.78 1.06 24
9 12/13/2022 03:20:30 74.19, 124.88 97.27 12/13/2022 03:21:18 74.19, 124.80 97.27 2.55 48
10 12/15/2022 21:14:46 74.15,-143.57 97.39 12/15/2022 21:14:20 74.16,-143.54 97.40 1.11 26
11 12/15/2022 22:04:12 -74.19, 23.99 82.58 12/15/2022 22:05:01 -74.20, 23.88 82.57 3.40 49



Historial Predications of SNOs between AQUA and METOP-B
